[[{"header":{"parameterUnit":"m.s-1","parameterCategory":2,"la1":30.2991,"la2":30.254,"lo1":-89.0895,"lo2":-89.0444,"dy":0.0017,"dx":0.0017,"nx":28,"ny":28,"refTime":"2024-04-01T09:00:00:Z","depth":"0","parameterNumber":2,"parameterNumberName":"U-component_of_CURRENTS"},"data":[0,0,0,0,0,0,0,0,0,0,0,0,0,0,0,0,0,0,0,0,0,0,0,0,0,0,0,0,0,0,0,0,0,0,0,0,0,0,0,0,0,0,0,0,0,0,0,0,0,0,0,0,0,0,0,0,0,0,0.3136,0.3136,0,0.3143,0.3142,0.3142,0.3111,0.3111,0.311,0.3109,0.3095,0.3096,0.3096,0,0,0,0,0,0,0,0,0,0,0,0,0,0.3132,0.3132,0.3136,0.3136,0.3137,0.3143,0.3142,0.3142,0.3111,0.311,0.311,0.3109,0.3095,0.3096,0.3096,0,0,0,0,0,0,0,0,0,0,0,0,0,0.3133,0.3132,0.3136,0.3124,0.3123,0.3143,0.3142,0.3142,0.3111,0.311,0.3109,0.3109,0.3095,0.3096,0.3096,0.3119,0,0,0.3097,0.3097,0,0,0,0,0,0,0,0,0.3133,0.3133,0.3125,0.3125,0.3124,0.3127,0.3136,0.3134,0.3112,0.3113,0.3109,0.3108,0.3107,0.3106,0.3106,0.3118,0.3117,0.3097,0.3097,0.3098,0.3098,0,0,0,0,0,0,0,0.3133,0.3133,0.3136,0.3126,0.3125,0.313,0.3129,0.3136,0.3113,0.3113,0.3111,0.3116,0.3106,0.3106,0.3106,0.3117,0.3097,0.3098,0.3098,0.3098,0.3188,0.319,0,0,0,0,0,0,0.3137,0.3133,0.3136,0.3137,0.3129,0.3131,0.3129,0.3125,0.3113,0.3112,0.3117,0.3115,0.3106,0.3105,0.3105,0.3162,0.3098,0.3098,0.3098,0.3186,0.3189,0.3191,0,0,0,0,0,0,0.3137,0.3137,0.3136,0.3137,0.3138,0.3132,0.3128,0.3126,0.3132,0.3117,0.3114,0.3127,0.3105,0.3104,0.3127,0.316,0.3098,0.3099,0.3184,0.3187,0.319,0.3256,0,0,0,0,0,0,0.3136,0.3136,0.3137,0.3137,0.3138,0.3162,0.3129,0.3127,0.3138,0.3135,0.3125,0.3122,0.3104,0.3127,0.3127,0.3159,0.3099,0.3181,0.3185,0.3189,0.3251,0.3261,0.3269,0,0,0,0,0,0.3136,0.3147,0.3136,0.3137,0.3137,0.3163,0.3165,0.3155,0.3139,0.3154,0.3148,0.3122,0.3153,0.3129,0.3129,0.3162,0.3179,0.3184,0.3189,0.3247,0.3259,0.3269,0,0,0,0,0,0,0.3149,0.3146,0.3133,0.3143,0.3157,0.3159,0.3175,0.3167,0.3173,0.3168,0.3146,0.3145,0.3181,0.3167,0.3141,0.3203,0.3164,0.3169,0.3208,0.3219,0.3229,0.3263,0.3099,0,0,0,0,0,0.3151,0.3158,0.316,0.3171,0.3179,0.3178,0.3187,0.3182,0.3188,0.3189,0.3182,0.3183,0.3202,0.3206,0.3217,0.3246,0.3286,0.3271,0.328,0.3288,0.3319,0.3411,0.3432,0.3207,0.3207,0.3207,0,0,0.3157,0.3161,0.3162,0.3175,0.3182,0.3203,0.3181,0.3204,0.3227,0.3188,0.3218,0.3218,0.322,0.3256,0.3271,0.3246,0.3375,0.3294,0.3301,0.3328,0.3418,0.344,0.346,0.321,0.321,0.3209,0,0,0.3181,0.318,0.3191,0.3208,0.3227,0.3233,0.3244,0.3253,0.3265,0.3285,0.328,0.331,0.3306,0.3337,0.3346,0.3419,0.3426,0.341,0.3478,0.3566,0.3586,0.3603,0.3689,0.3714,0.3408,0.3408,0.3408,0,0.3188,0.3194,0.3203,0.3225,0.324,0.3249,0.3269,0.3296,0.3312,0.3335,0.3301,0.3356,0.3354,0.3433,0.3456,0.3443,0.349,0.3429,0.358,0.3598,0.3615,0.3699,0.3725,0.3412,0.3412,0.3411,0.3411,0,0.3211,0.3224,0.3242,0.3263,0.3289,0.3314,0.3347,0.3379,0.3379,0.3396,0.3462,0.3473,0.3509,0.3513,0.3502,0.3626,0.3621,0.3584,0.3551,0.3642,0.3724,0.375,0.3417,0.3416,0.3415,0.3414,0,0,0.3196,0.3243,0.3247,0.3264,0.3307,0.3331,0.3393,0.3446,0.3497,0.3515,0.3586,0.3627,0.3641,0.3658,0.3665,0.3738,0.3894,0.3715,0.3718,0.3801,0.4101,0.4033,0.4054,0.3879,0.3884,0.3888,0.4112,0,0.3205,0.3246,0.3269,0.3315,0.3337,0.3378,0.344,0.3498,0.3538,0.3617,0.3666,0.373,0.3697,0.3726,0.3801,0.3877,0.3967,0.3838,0.4002,0.4007,0.3935,0.4084,0.3858,0.4034,0.4138,0.4143,0.4146,0,0.3202,0.3234,0.3272,0.3342,0.3357,0.3392,0.3488,0.355,0.3672,0.3706,0.3787,0.3828,0.3966,0.3907,0.4108,0.4026,0.4086,0.413,0.4139,0.4075,0.3989,0.3959,0.4078,0.3943,0.4186,0.4183,0.418,0,0.3175,0.3232,0.3261,0.3282,0.3366,0.3401,0.3459,0.3569,0.3643,0.3785,0.3854,0.3984,0.4085,0.4177,0.4274,0.4207,0.4488,0.4397,0.44,0.4396,0.4239,0.4212,0.4247,0.4559,0.4558,0.4558,0.4557,0,0.3166,0.3191,0.3249,0.327,0.3322,0.3394,0.3474,0.3556,0.3697,0.3818,0.3912,0.4039,0.4162,0.4318,0.436,0.4489,0.4567,0.447,0.4469,0.4254,0.4227,0.4127,0.4064,0.4566,0.4564,0.4563,0.4561,0,0.3132,0.3169,0.3206,0.3285,0.3306,0.3351,0.3466,0.3559,0.3687,0.386,0.3921,0.4138,0.4342,0.4455,0.4644,0.4617,0.4584,0.4739,0.4481,0.4445,0.4249,0.4198,0.4156,0.404,0.477,0.477,0.477,0,0.3113,0.3128,0.3195,0.3232,0.3264,0.3331,0.3408,0.3532,0.3644,0.3919,0.4028,0.4276,0.4428,0.4677,0.4683,0.477,0.4628,0.461,0.4429,0.4264,0.4208,0.4044,0.3937,0.4259,0.4255,0.4252,0.4249,0,0.3085,0.3109,0.3156,0.3228,0.3292,0.3356,0.3474,0.3534,0.3736,0.387,0.4108,0.4246,0.4487,0.4479,0.4591,0.4598,0.4345,0.4539,0.4439,0.3894,0.3651,0.3527,0.4094,0.4218,0.4221,0.4223,0.4225,0.4226,0.3068,0.3095,0.3172,0.3242,0.332,0.3404,0.3419,0.3554,0.3679,0.3854,0.4062,0.418,0.4252,0.4352,0.4343,0.4148,0.4166,0.3982,0.3968,0.3844,0.3616,0.4126,0.419,0.4192,0.4195,0.4197,0.4199,0,0.3058,0.3122,0.3193,0.3281,0.3363,0.34,0.3494,0.3485,0.3568,0.3733,0.3869,0.3886,0.3855,0.387,0.3741,0.3588,0.3404,0.3487,0.3188,0.3138,0.3658,0.3514,0.3346,0.3346,0.3346,0.3346,0.3346,0.3346,0.307,0.3135,0.3186,0.3306,0.3367,0.3385,0.3399,0.3373,0.3419,0.3383,0.3362,0.3419,0.3491,0.3428,0.3237,0.3158,0.2916,0.2764,0.2819,0.3152,0.3194,0.3235,0.3084,0.2829,0.2828,0.2115,0.211,0.2106]},{"header":{"parameterUnit":"m.s-1","parameterCategory":2,"la1":30.2991,"la2":30.254,"lo1":-89.0895,"lo2":-89.0444,"dy":0.0017,"dx":0.0017,"nx":28,"ny":28,"refTime":"2024-04-01T09:00:00:Z","depth":"0","parameterNumber":3,"parameterNumberName":"V-component_of_CURRENTS"},"data":[0,0,0,0,0,0,0,0,0,0,0,0,0,0,0,0,0,0,0,0,0,0,0,0,0,0,0,0,0,0,0,0,0,0,0,0,0,0,0,0,0,0,0,0,0,0,0,0,0,0,0,0,0,0,0,0,0,0,0.0177,0.0177,0,0.0117,0.0116,0.0116,0.0066,0.0066,0.0066,0.0065,0.0011,0.001,0.0008,0,0,0,0,0,0,0,0,0,0,0,0,0,0.0219,0.0219,0.0177,0.0177,0.0176,0.0117,0.0116,0.0115,0.0067,0.0066,0.0066,0.0065,0.0011,0.001,0.0008,0,0,0,0,0,0,0,0,0,0,0,0,0,0.0183,0.0219,0.0178,0.0145,0.0142,0.0117,0.0116,0.0115,0.0067,0.0066,0.0065,0.0065,0.0011,0.001,0.0008,0.0011,0,0,0.0003,0.0003,0,0,0,0,0,0,0,0,0.0186,0.0182,0.0151,0.0148,0.0144,0.01,0.0111,0.0081,0.0067,0.0094,0.0065,0.0065,0.0042,0.0038,0.0026,0.0008,0.0006,0.0003,0.0002,0.0001,0.0001,0,0,0,0,0,0,0,0.0188,0.0184,0.0153,0.015,0.0146,0.0123,0.0118,0.0105,0.0072,0.0092,0.0088,0.0083,0.004,0.0028,0.0025,0.0005,0.0003,0.0002,0.0001,0.0,-0.0014,-0.0013,0,0,0,0,0,0,0.02,0.0187,0.0154,0.0151,0.0165,0.0123,0.0117,0.0114,0.0072,0.0065,0.0084,0.0081,0.0031,0.0027,0.0023,0.0043,0.0001,-0.0,-0.0001,-0.0014,-0.0014,-0.0013,0,0,0,0,0,0,0.0201,0.0198,0.0157,0.0168,0.0161,0.0124,0.012,0.0113,0.0104,0.0066,0.0059,0.0083,0.003,0.0025,0.0014,0.0039,-0.0001,-0.0002,-0.0015,-0.0014,-0.0013,0.007,0,0,0,0,0,0,0.0203,0.0199,0.0201,0.0169,0.0161,0.0155,0.012,0.0112,0.0102,0.0098,0.0063,0.0057,0.0029,0.0016,0.0012,0.0036,-0.0003,-0.0016,-0.0015,-0.0014,0.0067,0.0074,0.008,0,0,0,0,0,0.0204,0.0218,0.0201,0.0197,0.0165,0.0156,0.0151,0.0121,0.0103,0.0108,0.0078,0.0058,0.002,0.0016,0.0011,0.0035,-0.0016,-0.0015,-0.0014,0.0064,0.0073,0.008,0,0,0,0,0,0,0.0237,0.0213,0.0194,0.0199,0.0183,0.0149,0.015,0.0129,0.0109,0.0103,0.0065,0.0057,0.0054,0.0032,0.0028,0.0032,-0.0001,-0.0,0.006,0.0068,0.0075,0.0106,-0.0005,0,0,0,0,0,0.0246,0.0249,0.022,0.0225,0.0219,0.0185,0.0177,0.0158,0.0135,0.0125,0.0099,0.0073,0.0055,0.0052,0.0028,0.0038,0.0031,0.0049,0.0056,0.0061,0.0083,0.0085,0.0095,-0.0009,-0.0009,-0.0009,0,0,0.0258,0.0247,0.0247,0.0232,0.0215,0.0221,0.0179,0.0175,0.0184,0.0124,0.0128,0.0092,0.0059,0.0062,0.006,0.005,0.0088,0.0063,0.0069,0.0087,0.0087,0.0098,0.0107,-0.0008,-0.0008,-0.0008,0,0,0.0293,0.0277,0.0291,0.0284,0.0267,0.0251,0.0255,0.0226,0.0218,0.0212,0.0172,0.0154,0.0127,0.0114,0.0102,0.0134,0.0116,0.0125,0.0196,0.0198,0.0207,0.0215,0.0227,0.0235,0.0137,0.0138,0.0138,0,0.0307,0.0321,0.0295,0.0308,0.0313,0.0271,0.0293,0.0282,0.0254,0.0259,0.0225,0.0193,0.0155,0.0175,0.0179,0.0153,0.0154,0.017,0.0209,0.0216,0.0223,0.0233,0.0241,0.0142,0.0141,0.0141,0.014,0,0.0349,0.0362,0.0374,0.0378,0.0381,0.0394,0.0377,0.0379,0.0358,0.0343,0.0347,0.0295,0.0284,0.0264,0.0228,0.0264,0.025,0.0211,0.0195,0.0239,0.0246,0.0253,0.0148,0.0146,0.0145,0.0144,0,0,0.038,0.0399,0.0405,0.0428,0.0422,0.0435,0.0455,0.0468,0.0501,0.0458,0.0504,0.0447,0.042,0.0406,0.0365,0.0362,0.0395,0.0316,0.0314,0.0341,0.0416,0.0376,0.0379,0.0366,0.0368,0.0369,0.0406,0,0.0422,0.0475,0.047,0.0526,0.0553,0.0535,0.0568,0.0573,0.0569,0.0602,0.0555,0.0572,0.0478,0.0487,0.0466,0.0419,0.0417,0.039,0.036,0.0359,0.0327,0.0386,0.0367,0.0396,0.0412,0.0414,0.0414,0,0.0467,0.05,0.0564,0.0618,0.0629,0.066,0.0716,0.0741,0.0764,0.0762,0.076,0.0728,0.0727,0.0638,0.0587,0.0578,0.0509,0.046,0.0459,0.04,0.0332,0.0351,0.0408,0.022,0.0425,0.0424,0.0423,0,0.0519,0.057,0.0632,0.0646,0.0694,0.0732,0.0763,0.0793,0.0842,0.0883,0.0936,0.0893,0.0923,0.0817,0.07,0.0655,0.065,0.0569,0.0471,0.0467,0.0435,0.0426,0.0318,0.0539,0.0539,0.0539,0.0539,0,0.0574,0.0625,0.0666,0.0704,0.079,0.0803,0.0898,0.0921,0.099,0.1095,0.1037,0.1132,0.0972,0.0942,0.0784,0.0668,0.0713,0.0509,0.0481,0.0463,0.0456,0.0276,0.0183,0.054,0.054,0.054,0.054,0,0.0628,0.065,0.0727,0.0794,0.0818,0.0888,0.0984,0.1062,0.112,0.1267,0.13,0.1336,0.1311,0.1133,0.1,0.0814,0.0574,0.0618,0.0611,0.0581,0.0271,0.0186,0.008,0.001,0.0511,0.0511,0.051,0,0.0662,0.0708,0.0793,0.0849,0.0886,0.0978,0.1052,0.1117,0.1223,0.1414,0.1518,0.1553,0.1619,0.14,0.1074,0.0803,0.061,0.0581,0.0467,0.0276,0.0161,0.0088,0.0032,0.0465,0.0464,0.0464,0.0463,0,0.0733,0.0763,0.0828,0.0933,0.102,0.1119,0.1246,0.1346,0.1479,0.1644,0.1881,0.1961,0.1777,0.1516,0.1112,0.0899,0.0442,0.0555,0.0365,0.0132,0.0043,-0.0044,0.0421,0.0456,0.0457,0.0458,0.0458,0.0458,0.0787,0.0844,0.0926,0.1025,0.1128,0.1271,0.1385,0.1561,0.1775,0.2063,0.2132,0.2309,0.1879,0.1345,0.1031,0.0396,0.0417,0.0175,0.0097,0.0049,-0.0055,0.0399,0.0386,0.0386,0.0387,0.0387,0.0387,0,0.0845,0.091,0.1012,0.1139,0.1263,0.1305,0.1523,0.168,0.1975,0.2244,0.2465,0.2337,0.1822,0.1258,0.0396,-0.0013,-0.0146,-0.0226,-0.0342,-0.0371,0.004,-0.0003,-0.0109,-0.0109,-0.0109,-0.0109,-0.0109,-0.0108,0.0884,0.0978,0.1024,0.1221,0.1326,0.152,0.1656,0.1927,0.2157,0.247,0.2577,0.2619,0.2134,0.071,-0.0253,-0.0454,-0.0695,-0.0754,-0.0857,-0.0611,-0.058,-0.0551,-0.0616,-0.0849,-0.085,-0.1242,-0.1246,-0.1249]}],[{"header":{"parameterUnit":"m.s-1","parameterCategory":2,"la1":30.2991,"la2":30.254,"lo1":-89.0895,"lo2":-89.0444,"dy":0.0017,"dx":0.0017,"nx":28,"ny":28,"refTime":"2024-04-01T09:00:00:Z","depth":"2","parameterNumber":2,"parameterNumberName":"U-component_of_CURRENTS"},"data":[0,0,0,0,0,0,0,0,0,0,0,0,0,0,0,0,0,0,0,0,0,0,0,0,0,0,0,0,0,0,0,0,0,0,0,0,0,0,0,0,0,0,0,0,0,0,0,0,0,0,0,0,0,0,0,0,0,0,0.2501,0.2502,0,0.2545,0.2546,0.2546,0.2561,0.2561,0.2561,0.2561,0.2577,0.2578,0.2578,0,0,0,0,0,0,0,0,0,0,0,0,0,0.2451,0.2451,0.2501,0.2502,0.2502,0.2545,0.2546,0.2546,0.2561,0.2561,0.2561,0.2561,0.2577,0.2578,0.2578,0,0,0,0,0,0,0,0,0,0,0,0,0,0.248,0.2451,0.2501,0.2516,0.2518,0.2545,0.2546,0.2546,0.2561,0.2561,0.2561,0.2561,0.2577,0.2578,0.2579,0.2585,0,0,0.2581,0.2581,0,0,0,0,0,0,0,0,0.2478,0.2482,0.2513,0.2515,0.2517,0.2549,0.2534,0.2559,0.2561,0.2543,0.2561,0.2561,0.2566,0.2568,0.2575,0.2586,0.2587,0.2581,0.2581,0.2582,0.2582,0,0,0,0,0,0,0,0.2476,0.248,0.2517,0.2514,0.2516,0.2528,0.2531,0.2539,0.2553,0.2545,0.2546,0.2553,0.2567,0.2574,0.2575,0.2587,0.2581,0.2582,0.2582,0.2582,0.2662,0.2663,0,0,0,0,0,0,0.2473,0.2478,0.2516,0.2519,0.2498,0.2529,0.2533,0.2538,0.2554,0.2557,0.2553,0.2554,0.2573,0.2575,0.2576,0.2627,0.2582,0.2582,0.2583,0.266,0.2662,0.2664,0,0,0,0,0,0,0.2471,0.2475,0.2514,0.2501,0.2506,0.253,0.2535,0.2539,0.2558,0.2561,0.2563,0.257,0.2573,0.2575,0.2603,0.2626,0.2583,0.2584,0.2658,0.2661,0.2663,0.2703,0,0,0,0,0,0,0.2469,0.2474,0.2481,0.25,0.2507,0.2542,0.2535,0.254,0.2562,0.2563,0.2576,0.2577,0.2573,0.2602,0.2603,0.2627,0.2584,0.2656,0.2659,0.2662,0.2699,0.2706,0.2712,0,0,0,0,0,0.2467,0.2478,0.2481,0.2486,0.2514,0.2543,0.2548,0.2563,0.2563,0.2578,0.2591,0.2577,0.2623,0.2604,0.2605,0.2629,0.2655,0.2658,0.2662,0.2697,0.2705,0.2712,0,0,0,0,0,0,0.2457,0.2481,0.2485,0.2501,0.2525,0.2546,0.2563,0.2571,0.2593,0.2597,0.2595,0.2597,0.2634,0.2629,0.2608,0.2664,0.2638,0.2642,0.2663,0.2671,0.2678,0.2702,0.2585,0,0,0,0,0,0.2458,0.2475,0.2497,0.2513,0.2525,0.2546,0.2561,0.2574,0.2593,0.2603,0.2613,0.2628,0.2649,0.2657,0.2675,0.2699,0.2732,0.2718,0.2725,0.273,0.2753,0.2825,0.284,0.2676,0.2676,0.2676,0,0,0.246,0.2475,0.2485,0.2513,0.2532,0.2557,0.2555,0.2586,0.2614,0.2601,0.2643,0.2653,0.2664,0.2698,0.2713,0.2695,0.2796,0.2735,0.2739,0.276,0.2831,0.2847,0.2861,0.2679,0.2678,0.2678,0,0,0.2472,0.2485,0.2504,0.2526,0.2559,0.2576,0.2587,0.2618,0.264,0.267,0.2682,0.2714,0.2726,0.2755,0.2765,0.2819,0.2832,0.2818,0.2863,0.2932,0.2947,0.2959,0.3027,0.3046,0.2815,0.2815,0.2815,0,0.2474,0.2493,0.2515,0.2539,0.256,0.2585,0.2611,0.2641,0.268,0.2706,0.2687,0.2755,0.2757,0.2823,0.2842,0.2834,0.2876,0.2828,0.2941,0.2955,0.2967,0.3034,0.3054,0.2817,0.2817,0.2817,0.2817,0,0.2494,0.2516,0.2532,0.2569,0.2598,0.2625,0.2667,0.2703,0.2719,0.2747,0.2813,0.283,0.2877,0.2876,0.287,0.2966,0.297,0.2944,0.292,0.2986,0.3052,0.3072,0.2821,0.282,0.2819,0.2819,0,0,0.2478,0.2533,0.2538,0.2562,0.2614,0.264,0.2697,0.2754,0.2801,0.2836,0.2905,0.294,0.2968,0.2985,0.2998,0.3046,0.3162,0.3035,0.3038,0.3102,0.3329,0.3231,0.3244,0.3157,0.3161,0.3164,0.334,0,0.2485,0.2525,0.2556,0.2607,0.2632,0.268,0.2731,0.2792,0.2838,0.2915,0.2963,0.3031,0.3007,0.3042,0.3095,0.3157,0.3217,0.3118,0.3257,0.3262,0.3166,0.3264,0.2977,0.3101,0.336,0.3363,0.3366,0,0.249,0.2517,0.2557,0.2628,0.2645,0.2687,0.2776,0.2826,0.2938,0.2979,0.3065,0.3116,0.3233,0.3184,0.3341,0.3282,0.3322,0.3347,0.3354,0.3266,0.3202,0.3077,0.3128,0.34,0.3397,0.3394,0.3392,0,0.246,0.2522,0.2552,0.2573,0.2653,0.2696,0.2747,0.2846,0.2907,0.3046,0.3115,0.3239,0.3329,0.3403,0.3472,0.3427,0.3626,0.3566,0.3519,0.3512,0.3298,0.3265,0.3678,0.3678,0.3677,0.3677,0.3676,0,0.2445,0.247,0.2545,0.256,0.2614,0.2685,0.2758,0.2831,0.2958,0.3047,0.3162,0.3271,0.339,0.3511,0.3541,0.3611,0.3695,0.3565,0.3562,0.3302,0.327,0.3541,0.3523,0.3683,0.3682,0.3681,0.368,0,0.2398,0.2441,0.2484,0.2571,0.26,0.2642,0.2754,0.2815,0.2944,0.3077,0.3139,0.3344,0.3506,0.3603,0.3743,0.3701,0.3763,0.3756,0.3444,0.34,0.3588,0.357,0.3739,0.3738,0.3736,0.3735,0.3734,0,0.2373,0.2391,0.2476,0.25,0.254,0.2607,0.2658,0.2789,0.2865,0.3109,0.3185,0.3405,0.3515,0.3697,0.3687,0.374,0.3796,0.3476,0.332,0.362,0.3601,0.3585,0.3569,0.3064,0.3058,0.3053,0.3048,0,0.2328,0.2365,0.24,0.2451,0.2507,0.2546,0.264,0.2691,0.2861,0.2998,0.3179,0.3292,0.3475,0.3409,0.3478,0.3456,0.3439,0.3368,0.3801,0.3075,0.2992,0.297,0.2975,0.3001,0.3006,0.301,0.3012,0.3014,0.2294,0.2297,0.2353,0.239,0.2431,0.245,0.2465,0.2593,0.2697,0.2843,0.302,0.3097,0.3157,0.3126,0.3052,0.3004,0.323,0.3063,0.3076,0.3095,0.2967,0.2884,0.2851,0.2855,0.2858,0.2861,0.2863,0,0.2243,0.225,0.2282,0.2311,0.2315,0.2388,0.242,0.2412,0.2487,0.2652,0.2752,0.2568,0.2557,0.2641,0.2492,0.2477,0.2417,0.2376,0.227,0.2321,0.2365,0.2194,0.1877,0.1873,0.187,0.1867,0,0,0.2206,0.2194,0.2193,0.217,0.2212,0.2168,0.2157,0.2186,0.2228,0.2221,0.2259,0.2441,0.2565,0.2189,0.2136,0.1984,0.2127,0.1903,0.2702,0.263,0.2669,0.2781,0.2579,0,0,0,0,0]},{"header":{"parameterUnit":"m.s-1","parameterCategory":2,"la1":30.2991,"la2":30.254,"lo1":-89.0895,"lo2":-89.0444,"dy":0.0017,"dx":0.0017,"nx":28,"ny":28,"refTime":"2024-04-01T09:00:00:Z","depth":"2","parameterNumber":3,"parameterNumberName":"V-component_of_CURRENTS"},"data":[0,0,0,0,0,0,0,0,0,0,0,0,0,0,0,0,0,0,0,0,0,0,0,0,0,0,0,0,0,0,0,0,0,0,0,0,0,0,0,0,0,0,0,0,0,0,0,0,0,0,0,0,0,0,0,0,0,0,-0.0017,-0.0018,0,-0.0062,-0.0063,-0.0063,-0.0098,-0.0099,-0.0099,-0.0099,-0.0146,-0.0147,-0.0148,0,0,0,0,0,0,0,0,0,0,0,0,0,0.001,0.001,-0.0017,-0.0018,-0.0018,-0.0062,-0.0063,-0.0063,-0.0098,-0.0099,-0.0099,-0.0099,-0.0146,-0.0147,-0.0148,0,0,0,0,0,0,0,0,0,0,0,0,0,-0.0016,0.001,-0.0017,-0.0041,-0.0043,-0.0062,-0.0063,-0.0064,-0.0098,-0.0099,-0.0099,-0.0099,-0.0145,-0.0147,-0.0148,-0.0148,0,0,-0.0153,-0.0153,0,0,0,0,0,0,0,0,-0.0014,-0.0017,-0.0037,-0.0039,-0.0042,-0.0075,-0.0071,-0.0092,-0.0098,-0.0078,-0.0099,-0.01,-0.0122,-0.0125,-0.0133,-0.0151,-0.0153,-0.0153,-0.0154,-0.0154,-0.0155,0,0,0,0,0,0,0,-0.0012,-0.0015,-0.0035,-0.0037,-0.004,-0.0059,-0.0063,-0.0075,-0.0097,-0.0079,-0.0082,-0.0086,-0.0123,-0.0132,-0.0135,-0.0153,-0.0153,-0.0154,-0.0155,-0.0156,-0.0173,-0.0173,0,0,0,0,0,0,-0.0004,-0.0013,-0.0034,-0.0037,-0.0028,-0.0059,-0.0063,-0.0064,-0.0097,-0.0102,-0.0086,-0.0088,-0.0129,-0.0133,-0.0136,-0.0125,-0.0154,-0.0156,-0.0157,-0.0174,-0.0173,-0.0173,0,0,0,0,0,0,-0.0003,-0.0005,-0.0032,-0.0026,-0.0031,-0.0058,-0.0059,-0.0065,-0.0071,-0.0102,-0.0107,-0.0086,-0.013,-0.0134,-0.0143,-0.0128,-0.0156,-0.0158,-0.0174,-0.0173,-0.0173,-0.0112,0,0,0,0,0,0,-0.0002,-0.0004,-0.0001,-0.0025,-0.0031,-0.0033,-0.0059,-0.0065,-0.0072,-0.0075,-0.0103,-0.0109,-0.013,-0.0141,-0.0145,-0.0131,-0.0159,-0.0175,-0.0174,-0.0173,-0.0114,-0.0109,-0.0105,0,0,0,0,0,-0.0001,0.001,-0.0001,-0.0003,-0.0025,-0.0033,-0.0037,-0.0059,-0.0072,-0.0067,-0.009,-0.0108,-0.0139,-0.0142,-0.0146,-0.0132,-0.0175,-0.0174,-0.0173,-0.0116,-0.011,-0.0105,0,0,0,0,0,0,0.0022,0.0007,-0.0005,-0.0001,-0.0012,-0.0038,-0.0037,-0.0052,-0.0067,-0.007,-0.0102,-0.0108,-0.0113,-0.013,-0.0133,-0.0136,-0.016,-0.016,-0.0115,-0.011,-0.0105,-0.0084,-0.016,0,0,0,0,0,0.003,0.0034,0.0014,0.0018,0.0014,-0.0011,-0.0017,-0.003,-0.0047,-0.0054,-0.0076,-0.0097,-0.0112,-0.0117,-0.0136,-0.0133,-0.0151,-0.0128,-0.0123,-0.0119,-0.0106,-0.0124,-0.0119,-0.017,-0.017,-0.017,0,0,0.0039,0.0031,0.0033,0.0023,0.0011,0.0017,-0.0015,-0.0017,-0.0009,-0.0056,-0.0053,-0.0082,-0.011,-0.0111,-0.0114,-0.0122,-0.0115,-0.0118,-0.0114,-0.0103,-0.0122,-0.0117,-0.0113,-0.0169,-0.0169,-0.0169,0,0,0.0064,0.0054,0.0067,0.0063,0.0052,0.004,0.0043,0.0023,0.0016,0.0012,-0.002,-0.0036,-0.006,-0.0073,-0.0084,-0.0062,-0.0093,-0.0072,-0.0024,-0.0042,-0.0038,-0.0034,-0.0051,-0.0049,-0.0064,-0.0064,-0.0064,0,0.0075,0.009,0.007,0.0083,0.0088,0.0056,0.0076,0.0066,0.0045,0.0047,0.0022,-0.0012,-0.0039,-0.0034,-0.003,-0.0049,-0.0066,-0.0042,-0.0034,-0.0031,-0.0029,-0.0047,-0.0046,-0.0061,-0.0061,-0.0062,-0.0062,0,0.011,0.0123,0.0132,0.014,0.0143,0.0155,0.0142,0.0142,0.0126,0.0112,0.0105,0.0063,0.0048,0.0032,0.0007,0.0016,-0.0005,-0.003,-0.0046,-0.002,-0.0041,-0.0041,-0.0056,-0.0058,-0.0058,-0.0059,0,0,0.0137,0.0154,0.0159,0.0179,0.0178,0.0189,0.0203,0.0211,0.0231,0.0194,0.0217,0.0172,0.0145,0.0132,0.0096,0.0076,0.0072,0.0037,0.0035,0.0027,0.0034,-0.0007,-0.0011,0.0047,0.0047,0.0048,0.0012,0,0.0173,0.0217,0.0214,0.0262,0.0286,0.0271,0.0294,0.0295,0.0285,0.0297,0.0251,0.0254,0.0186,0.0186,0.0154,0.0101,0.0075,0.0085,0.0004,0.0002,-0.0032,-0.0012,0.0018,-0.0014,0.0011,0.0011,0.0011,0,0.0213,0.024,0.0294,0.0337,0.0347,0.0371,0.0409,0.0424,0.0423,0.0417,0.0399,0.0363,0.0341,0.0276,0.0193,0.0202,0.0126,0.007,0.0067,0.001,-0.0038,-0.0037,-0.0016,0.0011,0.0011,0.0011,0.0011,0,0.0255,0.0301,0.0352,0.0364,0.0401,0.043,0.0452,0.0463,0.0499,0.0502,0.0531,0.0472,0.0473,0.0366,0.0244,0.0224,0.0146,0.0103,-0.0009,-0.0013,-0.0012,-0.0017,0.0038,0.0038,0.0038,0.0038,0.0038,0,0.03,0.0341,0.038,0.0409,0.048,0.0487,0.056,0.0567,0.0606,0.0676,0.0605,0.0651,0.0497,0.0431,0.029,0.0149,0.0179,0.0008,-0.0022,0.0008,0.0006,0.0007,0.0004,0.0037,0.0037,0.0037,0.0037,0,0.0337,0.0358,0.0423,0.0479,0.0502,0.0556,0.0637,0.0693,0.0718,0.0813,0.0828,0.0799,0.0721,0.0545,0.0386,0.023,0.0082,0.0017,0.0061,0.0036,-0.0078,-0.0077,-0.0104,-0.0105,-0.0107,-0.0108,-0.0109,0,0.0359,0.0397,0.0476,0.0525,0.0556,0.0634,0.0696,0.0743,0.0822,0.0918,0.0984,0.0939,0.0927,0.0662,0.0388,0.0131,0.009,-0.0032,-0.0077,-0.0064,-0.0091,-0.0088,-0.0086,-0.0049,-0.0049,-0.0049,-0.005,0,0.0406,0.0433,0.0487,0.0584,0.0662,0.0757,0.086,0.0946,0.1033,0.1136,0.1254,0.1251,0.1,0.0755,0.0377,0.0195,0.0006,-0.0049,-0.0028,-0.0026,-0.0018,-0.0042,-0.0041,-0.0053,-0.0052,-0.0052,-0.0052,-0.0052,0.044,0.0485,0.0556,0.0652,0.0746,0.0884,0.0999,0.1132,0.1295,0.1463,0.143,0.1434,0.1117,0.0651,0.0331,-0.0011,-0.0001,-0.0132,-0.0128,-0.0125,-0.012,-0.0116,-0.0168,-0.0168,-0.0169,-0.0169,-0.0169,0,0.0483,0.0533,0.062,0.0748,0.0871,0.0911,0.1114,0.1253,0.1485,0.1582,0.1662,0.1362,0.107,0.0714,0.0215,-0.0101,-0.0121,-0.0204,-0.015,-0.0145,-0.014,-0.0135,-0.0188,-0.0189,-0.019,-0.0191,0,0,0.0506,0.0586,0.063,0.0829,0.0935,0.1137,0.1272,0.1481,0.1609,0.1721,0.1712,0.1611,0.1181,0.081,0.0392,0.0116,0.0055,0.0049,0.0098,0.0218,0.0226,-0.0067,-0.005,0,0,0,0,0]}],[{"header":{"parameterUnit":"m.s-1","parameterCategory":2,"la1":30.2991,"la2":30.254,"lo1":-89.0895,"lo2":-89.0444,"dy":0.0017,"dx":0.0017,"nx":28,"ny":28,"refTime":"2024-04-01T09:00:00:Z","depth":"4","parameterNumber":2,"parameterNumberName":"U-component_of_CURRENTS"},"data":[0,0,0,0,0,0,0,0,0,0,0,0,0,0,0,0,0,0,0,0,0,0,0,0,0,0,0,0,0,0,0,0,0,0,0,0,0,0,0,0,0,0,0,0,0,0,0,0,0,0,0,0,0,0,0,0,0,0,0.1558,0.1559,0,0.1635,0.1636,0.1637,0.1704,0.1705,0.1706,0.1707,0.1789,0.179,0.1791,0,0,0,0,0,0,0,0,0,0,0,0,0,0.1469,0.147,0.1558,0.1559,0.1561,0.1635,0.1636,0.1637,0.1704,0.1705,0.1706,0.1707,0.1788,0.179,0.1792,0,0,0,0,0,0,0,0,0,0,0,0,0,0.1522,0.147,0.1558,0.1604,0.1609,0.1635,0.1636,0.1637,0.1704,0.1705,0.1707,0.1708,0.1788,0.179,0.1792,0.1777,0,0,0.1798,0.1799,0,0,0,0,0,0,0,0,0.1519,0.1525,0.1596,0.1601,0.1607,0.1663,0.1635,0.1685,0.1703,0.1666,0.1707,0.1708,0.1747,0.1752,0.1762,0.1781,0.1785,0.1798,0.1799,0.18,0.1801,0,0,0,0,0,0,0,0.1515,0.1522,0.1587,0.1597,0.1604,0.1621,0.163,0.1645,0.1697,0.167,0.1675,0.1685,0.175,0.176,0.1764,0.1786,0.1798,0.18,0.1801,0.1802,0.1909,0.1911,0,0,0,0,0,0,0.1507,0.1518,0.1585,0.159,0.1567,0.1621,0.1631,0.1642,0.1697,0.1707,0.1684,0.1688,0.1756,0.1762,0.1768,0.1847,0.18,0.1802,0.1803,0.1908,0.191,0.1911,0,0,0,0,0,0,0.1505,0.1512,0.1582,0.1557,0.1567,0.1622,0.1633,0.1643,0.1689,0.1708,0.1719,0.1725,0.1757,0.1765,0.1816,0.1847,0.1803,0.1805,0.1906,0.1908,0.191,0.1946,0,0,0,0,0,0,0.1502,0.1511,0.1531,0.1556,0.1569,0.162,0.1633,0.1644,0.1692,0.1699,0.1745,0.1753,0.1759,0.1813,0.1818,0.1849,0.1806,0.1904,0.1907,0.191,0.1943,0.195,0.1956,0,0,0,0,0,0.1498,0.1516,0.1531,0.154,0.1589,0.1621,0.1629,0.1671,0.1693,0.1717,0.1753,0.1753,0.1836,0.1815,0.1821,0.1854,0.1902,0.1906,0.1909,0.194,0.1949,0.1955,0,0,0,0,0,0,0.1492,0.1526,0.1542,0.1572,0.1605,0.1634,0.1666,0.1688,0.1734,0.1754,0.1769,0.1779,0.1838,0.1841,0.1818,0.1896,0.1871,0.1876,0.1892,0.19,0.1906,0.1917,0.1808,0,0,0,0,0,0.1497,0.1523,0.1553,0.1582,0.1601,0.1638,0.1663,0.169,0.1727,0.1751,0.1783,0.1819,0.185,0.1872,0.19,0.1936,0.1951,0.1963,0.1969,0.1975,0.1989,0.2034,0.2046,0.1923,0.1923,0.1923,0,0,0.1503,0.1527,0.1543,0.1584,0.1615,0.1646,0.1658,0.1706,0.1742,0.175,0.182,0.1845,0.1867,0.1915,0.1941,0.1925,0.2018,0.1979,0.1983,0.1995,0.2039,0.2051,0.2062,0.1926,0.1926,0.1925,0,0,0.1518,0.1552,0.1575,0.1604,0.1655,0.1676,0.1696,0.1743,0.1781,0.1831,0.1857,0.1904,0.1945,0.1974,0.1988,0.2045,0.2052,0.2057,0.2095,0.2138,0.2148,0.2158,0.2191,0.2203,0.2056,0.2056,0.2057,0,0.1528,0.1557,0.1588,0.1618,0.1647,0.1693,0.1723,0.1763,0.1825,0.1857,0.1863,0.1952,0.1972,0.2033,0.2058,0.2059,0.2084,0.206,0.2146,0.2155,0.2164,0.2196,0.2209,0.2059,0.2058,0.2058,0.2058,0,0.1548,0.1584,0.1605,0.1654,0.169,0.1728,0.1778,0.1829,0.1872,0.1906,0.1987,0.2018,0.2072,0.2085,0.2089,0.2168,0.2166,0.2149,0.2123,0.2178,0.2209,0.2222,0.2062,0.2061,0.206,0.206,0,0,0.1533,0.1603,0.1614,0.1641,0.1714,0.174,0.181,0.1873,0.1926,0.1986,0.2049,0.2112,0.2142,0.2163,0.2184,0.2222,0.2303,0.222,0.2221,0.2247,0.2405,0.2247,0.2246,0.2304,0.2307,0.2309,0.24,0,0.1542,0.1592,0.163,0.1688,0.1717,0.178,0.1835,0.1904,0.1968,0.2041,0.2094,0.2164,0.2168,0.2206,0.2249,0.2298,0.2339,0.228,0.2353,0.2355,0.2204,0.2256,0.2316,0.2409,0.2412,0.2414,0.2416,0,0.1541,0.1578,0.163,0.1701,0.1722,0.177,0.1868,0.1925,0.2034,0.2086,0.2169,0.2215,0.2309,0.229,0.2406,0.2373,0.2401,0.2422,0.2426,0.2276,0.2221,0.2345,0.2438,0.2437,0.2435,0.2433,0.2432,0,0.1497,0.1574,0.1616,0.1643,0.1732,0.178,0.184,0.1947,0.2004,0.2136,0.2188,0.2295,0.2365,0.2421,0.2482,0.2458,0.2588,0.2551,0.2435,0.2425,0.2523,0.2512,0.2626,0.2625,0.2625,0.2625,0.2625,0,0.147,0.1508,0.1607,0.1628,0.1688,0.1767,0.1847,0.1925,0.2041,0.2104,0.222,0.2281,0.2406,0.2485,0.2515,0.2518,0.2621,0.2456,0.244,0.2536,0.2525,0.2532,0.2519,0.2628,0.2628,0.2627,0.2626,0,0.1404,0.1472,0.1523,0.1629,0.1667,0.1714,0.1838,0.1883,0.202,0.2109,0.2156,0.2311,0.2414,0.2507,0.2613,0.2549,0.257,0.2544,0.2658,0.2646,0.2369,0.2359,0.2413,0.2408,0.2404,0.2401,0.2398,0,0.1371,0.1393,0.1506,0.1529,0.1582,0.1668,0.1711,0.1859,0.1912,0.21,0.2123,0.2282,0.2365,0.24,0.2505,0.2551,0.2522,0.251,0.2419,0.2369,0.235,0.2345,0.234,0.2392,0.2391,0.239,0.2389,0,0.1302,0.1356,0.1389,0.1431,0.1487,0.1535,0.1624,0.1658,0.1819,0.1968,0.2049,0.2111,0.2224,0.2308,0.2371,0.2393,0.25,0.2467,0.2474,0.2388,0.2344,0.2328,0.2327,0.2375,0.2377,0.2378,0.2379,0,0.125,0.1247,0.1285,0.1308,0.1357,0.1364,0.1444,0.1514,0.1597,0.1826,0.1854,0.203,0.2199,0.2227,0.228,0.2297,0.2253,0.2164,0.2186,0.2203,0.209,0.2001,0.1923,0,0,0,0,0,0.1189,0.1152,0.115,0.1151,0.1183,0.1214,0.1347,0.1437,0.1624,0.1631,0.1741,0.1838,0.193,0.2032,0.2008,0.2171,0.2248,0.213,0.2151,0.2298,0.2314,0.22,0,0,0,0,0,0,0.1137,0.1132,0.1101,0.1,0.0967,0.0991,0.1075,0.121,0.1244,0.1457,0.1535,0.1694,0.1829,0.1912,0.1955,0.1985,0.1955,0.2254,0.2249,0.2289,0.2303,0.2316,0.2204,0,0,0,0,0]},{"header":{"parameterUnit":"m.s-1","parameterCategory":2,"la1":30.2991,"la2":30.254,"lo1":-89.0895,"lo2":-89.0444,"dy":0.0017,"dx":0.0017,"nx":28,"ny":28,"refTime":"2024-04-01T09:00:00:Z","depth":"4","parameterNumber":3,"parameterNumberName":"V-component_of_CURRENTS"},"data":[0,0,0,0,0,0,0,0,0,0,0,0,0,0,0,0,0,0,0,0,0,0,0,0,0,0,0,0,0,0,0,0,0,0,0,0,0,0,0,0,0,0,0,0,0,0,0,0,0,0,0,0,0,0,0,0,0,0,-0.0011,-0.0011,0,-0.0044,-0.0044,-0.0045,-0.0073,-0.0073,-0.0074,-0.0074,-0.0112,-0.0113,-0.0113,0,0,0,0,0,0,0,0,0,0,0,0,0,0.0008,0.0008,-0.0011,-0.0011,-0.0012,-0.0044,-0.0044,-0.0045,-0.0073,-0.0073,-0.0074,-0.0074,-0.0112,-0.0112,-0.0113,0,0,0,0,0,0,0,0,0,0,0,0,0,-0.001,0.0008,-0.0011,-0.003,-0.0032,-0.0044,-0.0044,-0.0045,-0.0073,-0.0073,-0.0074,-0.0074,-0.0111,-0.0112,-0.0113,-0.0111,0,0,-0.0117,-0.0117,0,0,0,0,0,0,0,0,-0.0009,-0.0011,-0.0027,-0.0028,-0.0031,-0.0055,-0.0051,-0.0067,-0.0073,-0.0058,-0.0074,-0.0074,-0.0093,-0.0095,-0.0101,-0.0113,-0.0115,-0.0117,-0.0118,-0.0118,-0.0118,0,0,0,0,0,0,0,-0.0008,-0.001,-0.0024,-0.0027,-0.0029,-0.0043,-0.0046,-0.0055,-0.0073,-0.0059,-0.0061,-0.0064,-0.0094,-0.01,-0.0102,-0.0115,-0.0117,-0.0118,-0.0119,-0.0119,-0.0133,-0.0133,0,0,0,0,0,0,-0.0002,-0.0008,-0.0023,-0.0025,-0.002,-0.0043,-0.0046,-0.0047,-0.0072,-0.0077,-0.0064,-0.0065,-0.0098,-0.0101,-0.0103,-0.0097,-0.0118,-0.0119,-0.012,-0.0133,-0.0133,-0.0133,0,0,0,0,0,0,-0.0001,-0.0002,-0.0022,-0.0018,-0.0021,-0.0042,-0.0043,-0.0047,-0.0053,-0.0076,-0.008,-0.0065,-0.0098,-0.0102,-0.0109,-0.0099,-0.012,-0.0121,-0.0134,-0.0133,-0.0133,-0.0089,0,0,0,0,0,0,-0.0,-0.0002,0.0,-0.0017,-0.0021,-0.0023,-0.0043,-0.0047,-0.0054,-0.0056,-0.0078,-0.0083,-0.0099,-0.0108,-0.011,-0.0101,-0.0121,-0.0134,-0.0134,-0.0133,-0.0091,-0.0087,-0.0084,0,0,0,0,0,0.0001,0.0009,0.0001,-0.0001,-0.0017,-0.0023,-0.0026,-0.0043,-0.0053,-0.0051,-0.0068,-0.0082,-0.0106,-0.0108,-0.0112,-0.0102,-0.0134,-0.0134,-0.0133,-0.0092,-0.0088,-0.0084,0,0,0,0,0,0,0.0017,0.0006,-0.0003,0.0001,-0.0008,-0.0027,-0.0027,-0.0039,-0.0051,-0.0054,-0.0077,-0.0082,-0.0087,-0.01,-0.0102,-0.0106,-0.0123,-0.0123,-0.0091,-0.0087,-0.0083,-0.0068,-0.0122,0,0,0,0,0,0.0023,0.0026,0.0012,0.0015,0.0012,-0.0007,-0.0012,-0.0022,-0.0036,-0.0042,-0.0058,-0.0075,-0.0087,-0.0091,-0.0105,-0.0103,-0.0126,-0.0101,-0.0097,-0.0094,-0.0085,-0.0113,-0.0111,-0.0131,-0.0131,-0.0131,0,0,0.003,0.0024,0.0026,0.0019,0.0009,0.0014,-0.0011,-0.0013,-0.0008,-0.0043,-0.0042,-0.0064,-0.0085,-0.0087,-0.0089,-0.0096,-0.0102,-0.0093,-0.0091,-0.0082,-0.0112,-0.011,-0.0108,-0.013,-0.013,-0.013,0,0,0.0048,0.0041,0.0051,0.0048,0.0039,0.0031,0.0032,0.0017,0.0011,0.0008,-0.0017,-0.0031,-0.0048,-0.006,-0.0068,-0.0053,-0.0086,-0.006,-0.0026,-0.0054,-0.0052,-0.0051,-0.0084,-0.0086,-0.0055,-0.0055,-0.0055,0,0.0056,0.0067,0.0053,0.0062,0.0066,0.0042,0.0057,0.0049,0.0033,0.0032,0.0015,-0.0014,-0.0033,-0.0034,-0.003,-0.0043,-0.0069,-0.0039,-0.0049,-0.0048,-0.0048,-0.0082,-0.0085,-0.0053,-0.0053,-0.0053,-0.0054,0,0.0081,0.0091,0.0098,0.0103,0.0107,0.0115,0.0106,0.0105,0.0093,0.0081,0.0072,0.0041,0.0026,0.0014,-0.0002,-0.0005,-0.0028,-0.0044,-0.0058,-0.0043,-0.008,-0.0084,-0.005,-0.0051,-0.0051,-0.0052,0,0,0.0098,0.0113,0.0116,0.0132,0.0132,0.0141,0.0151,0.0156,0.0168,0.0139,0.0147,0.0118,0.0094,0.0083,0.0055,0.0033,0.0009,0.0,-0.0002,-0.0028,-0.0059,-0.007,-0.0076,-0.0012,-0.0012,-0.0012,-0.0088,0,0.0124,0.0156,0.0156,0.0192,0.021,0.0201,0.0218,0.0217,0.0208,0.0208,0.0169,0.0164,0.0123,0.0117,0.0087,0.0031,0.0002,0.0031,-0.0072,-0.0075,-0.0084,-0.008,-0.0013,-0.0091,-0.0092,-0.0093,-0.0093,0,0.0149,0.0171,0.0211,0.0246,0.0254,0.0273,0.0301,0.0313,0.0302,0.0294,0.0272,0.0235,0.0203,0.0163,0.0073,0.0091,0.0023,-0.0027,-0.0032,-0.0057,-0.0092,-0.0108,-0.0101,-0.01,-0.01,-0.0099,-0.0099,0,0.0175,0.0212,0.0251,0.0261,0.0292,0.0315,0.0334,0.034,0.0366,0.0352,0.036,0.0299,0.028,0.0188,0.008,0.0075,-0.003,-0.0051,-0.0128,-0.013,-0.0117,-0.0118,-0.0118,-0.0118,-0.0117,-0.0117,-0.0117,0,0.0202,0.0235,0.027,0.0291,0.0347,0.0356,0.0413,0.0417,0.0438,0.0477,0.0411,0.0416,0.0285,0.0205,0.0097,-0.0026,-0.0021,-0.0119,-0.0147,-0.0099,-0.0096,-0.0121,-0.012,-0.012,-0.0119,-0.0119,-0.0118,0,0.0221,0.0242,0.0292,0.0338,0.0361,0.0403,0.0475,0.0517,0.0525,0.0571,0.0572,0.0504,0.0398,0.0255,0.0103,0.0008,-0.0115,-0.0164,-0.0102,-0.0126,-0.0204,-0.02,-0.0252,-0.0253,-0.0254,-0.0255,-0.0255,0,0.0233,0.0259,0.0328,0.0372,0.0399,0.0467,0.052,0.0556,0.061,0.0628,0.0656,0.0564,0.0498,0.0281,0.0114,-0.0104,-0.0138,-0.0207,-0.0204,-0.0194,-0.0216,-0.0211,-0.0206,-0.0256,-0.0257,-0.0257,-0.0257,0,0.0256,0.0281,0.0324,0.0412,0.048,0.0567,0.0647,0.069,0.0739,0.0739,0.0735,0.0615,0.0487,0.0295,0.0118,-0.0038,-0.0163,-0.0216,-0.0215,-0.0213,-0.02,-0.022,-0.0214,-0.026,-0.0259,-0.0259,-0.0259,0,0.0275,0.031,0.0373,0.0455,0.0547,0.0652,0.0687,0.0755,0.0803,0.0818,0.0808,0.0664,0.0574,0.0329,0.017,0.0009,-0.0034,-0.0084,-0.0091,-0.009,-0.0028,0.0014,0.0001,0,0,0,0,0,0.0292,0.034,0.0416,0.0517,0.0614,0.0676,0.0772,0.0804,0.0839,0.0851,0.0838,0.072,0.0482,0.0373,0.0212,0.0137,-0.0076,-0.006,-0.0139,-0.0275,-0.0272,-0.0227,0,0,0,0,0,0,0.0307,0.0372,0.0416,0.056,0.0642,0.0763,0.0828,0.0854,0.0864,0.0862,0.074,0.0676,0.0441,0.0577,0.0209,0.0157,0.0083,-0.0174,-0.0178,-0.0277,-0.0274,-0.0272,-0.0225,0,0,0,0,0]}]]